Terminal Aerodrome Forecast
Issued by NWS Bismarck, ND

Home | Current Version | Previous Version | Graphics & Text | Print | Product List | Glossary On
Versions: 1 2 3 4 5 6 7 8 9 10 11 12 13 14 15 16 17 18 19 20 21
000
FTUS43 KBIS 310535
TAFBIS
TAF
KBIS 310535Z 3106/0106 03007KT P6SM SCT150
     FM310800 02006KT P6SM VCTS SCT080CB BKN150
     FM311100 33008KT P6SM VCTS BKN080CB OVC150
     FM311500 30015G23KT P6SM SCT150
     FM010100 25005KT P6SM SKC=

USA.gov is the U.S. government's official web portal to all federal, state and local government web resources and services.